STARLINK-33585 (62782 NORAD) Tracking and Keplerian Element Data

This shows tracking and keplerian element data for the satellite.

Feedback or suggestion? Click here.




ElementValue
Catalog62782
NameSTARLINK-33585
Epoch Orbit5195
Epoch Day353.66187253
Epoch Year2025
RAAN333.8108
Inclination53.1617
Eccentricity0.000157
Argument of Perigee79.6851
Mean Anonmoly280.4327
Mean Motion15.30216744
Decay Rate0.00016753
L11 62782U 25015AA 25353.66187253 .00016753 00000+0 57619-3 0 9996
L22 62782 53.1617 333.8108 0001570 79.6851 280.4327 15.30216744 51954



Live tracking and technical data element details for STARLINK-33585 (NORAD 62782). STARLINK-33585 can be tracked NOW for your location showing map with azimuth and elevation plus other details from your city location.







IsCatalogInMostPopularTable: catalog: 62782, numindb: 247
Update: records affected: 1



GetName: 62782 STARLINK-33585

Hit Count: updated at: Sun, 08 Feb 2026 17:08:55 GMT